This is the latest recevied weather packets stored in our database for station/object W5COG. If no packets are shown the sender has not sent any weather packets the latest 10 day(s).
| Time | Temp. | Humidity | Pressure | Rain* | Wind** | Luminosity | Snow |
|---|---|---|---|---|---|---|---|
| 1777601726 | 15° C | 55% | 1016.9 hPa | 0 mm | - | 0 W/m² | - |
| 1777601426 | 15° C | 55% | 1017 hPa | 0 mm | - | 0 W/m² | - |
| 1777601126 | 15° C | 54% | 1016.9 hPa | 0 mm | - | 0 W/m² | - |
| 1777600826 | 15° C | 53% | 1016.8 hPa | 0 mm | - | 0 W/m² | - |
| 1777600526 | 15.56° C | 53% | 1016.7 hPa | 0 mm | - | 0 W/m² | - |
| 1777600226 | 15.56° C | 53% | 1016.7 hPa | 0 mm | - | 0 W/m² | - |
| 1777599926 | 15.56° C | 53% | 1016.8 hPa | 0 mm | - | 0 W/m² | - |
| 1777599026 | 15.56° C | 51% | 1016.5 hPa | 0 mm | - | 0 W/m² | - |
| 1777598726 | 16.11° C | 50% | 1016.5 hPa | 0 mm | - | 1 W/m² | - |
| 1777598427 | 16.11° C | 49% | 1016.3 hPa | 0 mm | - | 5 W/m² | - |
| 1777598126 | 16.11° C | 49% | 1016.3 hPa | 0 mm | - | 5 W/m² | - |
| 1777597826 | 16.11° C | 48% | 1016.2 hPa | 0 mm | - | 7 W/m² | - |
| 1777597526 | 16.11° C | 49% | 1016.1 hPa | 0 mm | - | 10 W/m² | - |
| 1777597226 | 16.67° C | 49% | 1016.1 hPa | 0 mm | - | 11 W/m² | - |
| 1777596926 | 16.67° C | 48% | 1016.1 hPa | 0 mm | - | 18 W/m² | - |
| 1777596626 | 16.67° C | 48% | 1016.1 hPa | 0 mm | - | 27 W/m² | - |
| 1777596326 | 16.67° C | 47% | 1016.1 hPa | 0 mm | - | 30 W/m² | - |
| 1777596026 | 16.67° C | 46% | 1016.1 hPa | 0 mm | - | 33 W/m² | - |
| 1777595726 | 16.67° C | 46% | 1016 hPa | 0 mm | - | 37 W/m² | - |
| 1777595426 | 16.67° C | 47% | 1016.1 hPa | 0 mm | - | 37 W/m² | - |
| 1777595126 | 17.22° C | 46% | 1016 hPa | 0 mm | - | 44 W/m² | - |
| 1777594826 | 17.22° C | 46% | 1015.9 hPa | 0 mm | - | 52 W/m² | - |
| 1777594526 | 17.22° C | 45% | 1015.8 hPa | 0 mm | - | 52 W/m² | - |
| 1777593626 | 17.22° C | 45% | 1015.7 hPa | 0 mm | - | 88 W/m² | - |
| 1777593326 | 17.78° C | 44% | 1015.7 hPa | 0 mm | - | 88 W/m² | - |
* Rain latest hour (hover to see other rain measurements)
** Current wind speed in m/s (hover to see current wind gust speed)